"Pseudo-MPEC" for C2YMPK2

Created 2020 Aug 6 7:07:04 UT using Find_Orb

Click here for an explanation of pseudo-MPECs

 
 Astrometry: 
     C2YMPK2  C2020 07 30.42800 23 32 54.60 +06 09 48.8    ~7UB7 21.4 GVNEOCPG96
     C2YMPK2  C2020 07 30.43523 23 32 55.41 +06 09 56.7    ~7UB7 22.7 GVNEOCPG96
     C2YMPK2  C2020 07 30.44244 23 32 56.27 +06 10 05.4    ~7UB7 21.8 GVNEOCPG96
     C2YMPK2  C2020 07 30.44965 23 32 57.13 +06 10 13.2    ~7UB7 21.1 GVNEOCPG96
     C2YMPK2  C2020 07 31.31078 23 34 43.50 +06 26 38.0    ~7V7q 21.7 GVNEOCPG96
     C2YMPK2  C2020 07 31.31329 23 34 43.75 +06 26 40.9    ~7V7q 22.1 GVNEOCPG96
     C2YMPK2  C2020 07 31.31581 23 34 44.04 +06 26 44.4    ~7V7q 22.1 GVNEOCPG96
     C2YMPK2  C2020 07 31.31726 23 34 44.23 +06 26 45.5    ~7V7q 22.6 GVNEOCPG96

Station data:
(G96) Mt. Lemmon Survey  (N32.442754 W110.788720)  US/Arizona.  Observers T.
   A. Pruyne, B. M. Africano, E. J. Christensen, G. A. Farneth, D. C. Fuls,
   A. R. Gibbs, A. D. Grauer, H. Gröller, J. A. Johnson, R. A. Kowalski, S.
   M. Larson, G. J. Leonard, D. Rankin, R. L. Seaman, F. C. Shelly. 1.5-m
   reflector + 10K CCD.

Orbital elements:  C2YMPK2
   Perihelion 2020 Aug 8.620156 +/- 36.7 TT = 14:53:01 (JD 2459070.120156)
Epoch 2020 Jul 31.0 TT = JDT 2459061.5   Earth MOID: 0.2554   Ma: 0.0501
M 357.22832328 +/- 18               (J2000 ecliptic)          AutoNEOCP
n   0.32153441 +/- 0.201            Peri.   79.27911 +/- 80
a   2.11017142 +/- 0.88             Node   247.38819 +/- 27
e   0.4012801 +/- 0.191             Incl.    2.38220 +/- 0.8
P   3.07                   H 22.6   G  0.15   U 11.7  SR
q 1.26340157 +/- 0.253    Q 2.95694128 +/- 3.85
From 8 observations 2020 July 30-31 (21.3 hr); mean residual 0".31
Residuals in arcseconds: 
200730 G96  .28-  .25+    200730 G96  .67+  .29-    200731 G96  .22-  .45+    
200730 G96  .48-  .18-    200731 G96  .32+  .18-    200731 G96  .13+  .11-    
200730 G96  .10+  .21+    200731 G96  .24-  .16-    

Ephemerides (geocentric):
Date (UTC) HH   RA              Dec         delta   r     elong  mag " sig PA
---- -- -- --  -------------   -----------  ------ ------ -----  --- ---- ---
2020 08 06 07  23 46 12.491   +08 13 44.89  .33043 1.2636 133.2 22.1 1087 149
2020 08 06 08  23 46 17.028   +08 14 26.70  .33035 1.2636 133.2 22.1 1102 149
2020 08 06 09  23 46 21.560   +08 15 08.47  .33028 1.2636 133.2 22.1 1117 149
2020 08 06 10  23 46 26.088   +08 15 50.20  .33021 1.2636 133.3 22.1 1132 149
2020 08 06 11  23 46 30.612   +08 16 31.88  .33014 1.2636 133.3 22.1 1148 149
2020 08 06 12  23 46 35.132   +08 17 13.52  .33007 1.2636 133.3 22.1 1163 149
2020 08 06 13  23 46 39.649   +08 17 55.12  .33000 1.2636 133.3 22.1 1179 149
2020 08 06 14  23 46 44.161   +08 18 36.67  .32993 1.2636 133.3 22.1 1194 149
2020 08 06 15  23 46 48.669   +08 19 18.18  .32985 1.2635 133.3 22.1 1210 149
2020 08 06 16  23 46 53.173   +08 19 59.65  .32978 1.2635 133.4 22.1 1226 149
2020 08 06 17  23 46 57.673   +08 20 41.07  .32971 1.2635 133.4 22.1 1242 149
2020 08 06 18  23 47 02.169   +08 21 22.45  .32964 1.2635 133.4 22.1 1259 149
2020 08 06 19  23 47 06.661   +08 22 03.79  .32957 1.2635 133.4 22.1 1275 149
2020 08 06 20  23 47 11.149   +08 22 45.09  .32950 1.2635 133.4 22.1 1292 149
2020 08 06 21  23 47 15.633   +08 23 26.34  .32943 1.2635 133.4 22.1 1308 149
2020 08 06 22  23 47 20.112   +08 24 07.54  .32936 1.2635 133.5 22.1 1325 149
2020 08 06 23  23 47 24.588   +08 24 48.71  .32929 1.2635 133.5 22.1 1342 149
2020 08 07 00  23 47 29.060   +08 25 29.82  .32922 1.2635 133.5 22.1 1359 149
2020 08 07 01  23 47 33.527   +08 26 10.90  .32915 1.2635 133.5 22.1 1376 149
2020 08 07 02  23 47 37.991   +08 26 51.93  .32908 1.2635 133.5 22.1 1393 149
2020 08 07 03  23 47 42.450   +08 27 32.92  .32901 1.2635 133.5 22.1 1410 149
2020 08 07 04  23 47 46.906   +08 28 13.86  .32894 1.2635 133.6 22.1 1428 149
2020 08 07 05  23 47 51.357   +08 28 54.76  .32887 1.2635 133.6 22.1 1446 149
2020 08 07 06  23 47 55.804   +08 29 35.62  .32880 1.2635 133.6 22.1 1463 149
2020 08 07 07  23 48 00.247   +08 30 16.43  .32873 1.2635 133.6 22.1 1481 149
2020 08 07 08  23 48 04.686   +08 30 57.19  .32866 1.2635 133.6 22.1 1499 149
2020 08 07 09  23 48 09.120   +08 31 37.92  .32859 1.2635 133.7 22.1 1517 149
2020 08 07 10  23 48 13.551   +08 32 18.59  .32853 1.2635 133.7 22.1 1535 149
2020 08 07 11  23 48 17.978   +08 32 59.23  .32846 1.2635 133.7 22.1 1554 149
2020 08 07 12  23 48 22.400   +08 33 39.82  .32839 1.2634 133.7 22.1 1572 149
2020 08 07 13  23 48 26.818   +08 34 20.36  .32832 1.2634 133.7 22.1 1591 149
2020 08 07 14  23 48 31.232   +08 35 00.86  .32825 1.2634 133.7 22.1 1610 149
2020 08 07 15  23 48 35.642   +08 35 41.31  .32818 1.2634 133.8 22.1 1628 149
2020 08 07 16  23 48 40.048   +08 36 21.72  .32812 1.2634 133.8 22.1 1647 149
2020 08 07 17  23 48 44.450   +08 37 02.09  .32805 1.2634 133.8 22.1 1667 149
2020 08 07 18  23 48 48.847   +08 37 42.41  .32798 1.2634 133.8 22.1 1686 149
2020 08 07 19  23 48 53.240   +08 38 22.69  .32791 1.2634 133.8 22.1 1705 149
2020 08 07 20  23 48 57.629   +08 39 02.92  .32784 1.2634 133.8 22.1 1725 149
2020 08 07 21  23 49 02.014   +08 39 43.10  .32778 1.2634 133.9 22.1 1744 149
2020 08 07 22  23 49 06.395   +08 40 23.24  .32771 1.2634 133.9 22.1 1764 149
2020 08 07 23  23 49 10.772   +08 41 03.34  .32764 1.2634 133.9 22.1 1784 149
2020 08 08 00  23 49 15.144   +08 41 43.39  .32758 1.2634 133.9 22.1 1804 149
2020 08 08 01  23 49 19.512   +08 42 23.39  .32751 1.2634 133.9 22.1 1824 149
2020 08 08 02  23 49 23.876   +08 43 03.35  .32744 1.2634 134.0 22.1 1845 149
2020 08 08 03  23 49 28.236   +08 43 43.26  .32738 1.2634 134.0 22.1 1865 149
2020 08 08 04  23 49 32.592   +08 44 23.13  .32731 1.2634 134.0 22.1 1886 149
2020 08 08 05  23 49 36.943   +08 45 02.95  .32724 1.2634 134.0 22.1 1906 149
2020 08 08 06  23 49 41.290   +08 45 42.73  .32718 1.2634 134.0 22.1 1927 149